Location: Gwatt
(46.7204°N, 7.6223°E)
Time: 00:21:59
(UTC+00:00)

S-56A Canister/Altair - Pass Details

Date: 25 June 2021
Orbit: 631 x 2501 km, 38.9° (Epoch: 02 August)

Event Time Altitude Azimuth Distance (km) Brightness Sun altitude
Exits shadow 01:51:34 14° 180° (S) 1,864 9.0 -13.1°
Maximum altitude 01:53:04 16° 158° (SSE) 1,701 9.0 -13.0°
Drops below altitude 10° 01:55:54 10° 119° (ESE) 2,020 9.8 -12.7°
Sets 01:58:52 0° 97° (E) 2,917 10.9 -12.5°
